Skip Page Navigation
NASA JPL Caltech
NASA Logo - Jet Propulsion Laboratory + View the NASA Portal
+ Near-Earth Object (NEO) Program
Search JPL
JPL Home Earth Solar System Stars & Galaxies Technology
JPL Solar System Dynamics
BODIES ORBITS EPHEMERIDES TOOLS PHYSICAL DATA DISCOVERY FAQ SITE MAP
JPL Small-Body Database Browser
Search: [ help ]  
23792 Alyssacook (1998 QU24)
Classification: Main-belt Asteroid          SPK-ID: 2023792
Ephemeris | Orbit Diagram | Orbital Elements | Physical Parameters | Discovery Circumstances ]

[ show orbit diagram ]
Orbital Elements at Epoch 2456400.5 (2013-Apr-18.0) TDB
Reference: MPO240394 (heliocentric ecliptic J2000)
 Element Value Uncertainty (1-sigma)   Units 
e 0.1112306 n/a  
a 2.3348733 n/a AU
q 2.0751639 n/a AU
i 6.40964 n/a deg
node 164.13792 n/a deg
peri 114.00553 n/a deg
M 83.49735 n/a deg
tp 2456098.2518868
(2012-Jun-19.75188680)
n/a JED
period 1303.1469950
3.57
n/a
n/a
d
yr
n 0.27625433 n/a deg/d
Q 2.5945827 n/a AU
  Orbit Determination Parameters
   # obs. used (total)      694  
   first obs. used      1991-??-??  
   last obs. used      2012-10-11  
   # oppositions      13  
   planetary ephem.      DE403  
   condition code      0  
   fit RMS      0.57  
   data source      MPC:mpn  
   producer      MPCLINUX  

Additional Information
 T_jup = 3.552 

Ephemeris | Orbit Diagram | Orbital Elements | Physical Parameters | Discovery Circumstances ]

Physical Parameter Table
Parameter Symbol Value Units Sigma Reference Notes
absolute magnitude H 14.5 mag n/a PDS3 (MPO 11200)  

23792 Alyssacook           Discovered 1998 Aug. 17 by the Lincoln Laboratory Near-Earth Asteroid Research Team at Socorro.
Alyssa Noel Cook (b. 1993) is a finalist in the 2007 Discovery Channel Young Scientist Challenge (DCYSC), a middle school science competition, for her biochem, medicine, health, and microbiology project. She attends the Fairmont Private Schools, Santa Ana, California.
NOTE: some special characters may not display properly (any characters within {} are an attempt to place the proper accent above a character)
Reference: 20071026/MPCPages.arcLast Updated: 2007-10-28

Alternate Designations
 1998 QU24 = 1991 RA34 = 2000 AJ163 
Ephemeris | Orbit Diagram | Orbital Elements | Physical Parameters | Discovery Circumstances ]
ABOUT SSD CREDITS/AWARDS PRIVACY/COPYRIGHT GLOSSARY LINKS
FirstGov 2013-Jun-20 11:27 UT
(server date/time)  
NASA Home Page
Site Manager:   Donald K. Yeomans
Webmaster  Alan B. Chamberlin